Regional Weather Roundup
Issued by NWS

Home | Current Version | Previous Version | Text Only | Print | Product List | Glossary On
Versions: 1 2 3 4 5 6 7 8 9 10 11 12 13 14 15 16 17 18 19 20 21 22 23 24 25 26 27 28 29 30 31 32 33 34 35 36 37 38 39 40 41 42 43 44 45 46 47 48 49 50
000
ASUS43 KFSD 192310
RWRSD

WEATHER ROUNDUP FOR SOUTH DAKOTA
NATIONAL WEATHER SERVICE SIOUX FALLS SD
600 PM CDT SAT AUG 19 2017

NOTE: "FAIR" INDICATES FEW OR NO CLOUDS BELOW 12,000 FEET WITH NO
SIGNIFICANT WEATHER AND/OR OBSTRUCTIONS TO VISIBILITY.


SDZ001>005-009-010-012>017-200000-
NORTHWEST AND NORTH CENTRAL SOUTH DAKOTA

CITY           SKY/WX    TMP DP  RH WIND       PRES   REMARKS
BUFFALO          N/A     84  39  20 NW10      29.82S
FAITH            N/A     92  40  16 N21G30    29.81R
MOBRIDGE       SUNNY     86  67  52 S6        29.73S
$$

SDZ012>016-024>037-041>051-057-063-072>074-200000-
SOUTHWEST AND SOUTH CENTRAL SOUTH DAKOTA

CITY           SKY/WX    TMP DP  RH WIND       PRES   REMARKS
RAPID CTY ARPT SUNNY     91  48  22 NW10      29.84F
PIERRE         SUNNY     92  61  35 SE14      29.73F
CUSTER         SUNNY     83  40  21 E12G17    30.02F
ELLSWORTH AFB  SUNNY     90  43  19 NW12      29.85S
PHILIP         SUNNY     99  37  11 NW8       29.75S
PINE RIDGE     SUNNY     95  36  12 SE7       29.85F
SPEARFISH      FAIR      84  37  18 N14       29.94R
WINNER         FAIR      91  68  46 SE14      29.77F HX  95
$$

SDZ004>011-016>023-039-040-200000-
NORTHEAST SOUTH DAKOTA

CITY           SKY/WX    TMP DP  RH WIND       PRES   REMARKS
ABERDEEN       SUNNY     79  62  56 S14       29.77F
WATERTOWN      SUNNY     77  63  61 SE15      29.83S
BROOKINGS      SUNNY     78  63  59 S15       29.85F
SISSETON         N/A     79  63  57 SE13G22   29.78F
$$

SDZ017-020-022-023-036>040-048>070-200000-
SOUTHEAST SOUTH DAKOTA

CITY           SKY/WX    TMP DP  RH WIND       PRES   REMARKS
SIOUX FALLS    MOSUNNY   80  65  59 S14       29.85F
HURON          SUNNY     82  63  52 S16       29.80S
CHAMBERLAIN    SUNNY     88  70  54 SE14      29.77F
MITCHELL       SUNNY     83  65  54 SE15      29.81F
YANKTON        SUNNY     81  65  58 SE15      29.83S
$$

ABBREVIATIONS USED IN REMARKS
   TC - TEMPERATURE IN CELSIUS
  WCI - WIND CHILL INDEX
   HX - HEAT INDEX
  VSB - VISIBILITY




USA.gov is the U.S. government's official web portal to all federal, state and local government web resources and services.